Wind_Speed
46 47 47 47 47 47 47 46 44 41 38 35 33 32 32 31 30 30 29 28 28 26 24 23 22 21 21 23 26 27 29 30 31 32 32 33 34 35 36 36 36 36 36
44 44 44 43 43 42 41 39 36 34 32 30 29 29 29 29 30 29 29 27 26 24 23 21 21 22 23 25 26 28 29 30 31 33 34 35 35 37 38 39 39 39 39
39 39 38 37 36 35 35 32 30 28 27 27 29 28 27 28 28 27 28 27 25 24 23 23 23 24 24 25 27 28 29 29 31 33 34 35 36 36 37 38 39 40 39
34 33 33 32 31 30 28 26 23 22 22 24 25 26 26 27 27 26 26 25 24 23 23 23 23 23 24 26 26 27 28 29 31 32 33 34 35 36 37 38 39 39 39
30 29 29 29 27 25 23 21 18 15 15 18 20 21 23 25 25 24 24 24 23 22 22 21 21 22 23 24 25 26 27 29 30 31 32 32 34 35 36 37 38 38 39
28 27 27 26 24 21 19 17 15 11 7 8 9 11 13 15 17 19 20 21 22 22 21 20 20 20 21 22 23 25 27 28 29 30 31 32 34 35 36 37 37 38 38
27 26 25 23 20 17 16 14 12 9 7 5 4 6 8 10 12 13 15 17 18 19 19 19 20 20 21 22 23 25 26 28 29 31 32 33 34 34 35 37 38 38 38
26 25 22 19 17 15 14 11 10 8 7 6 6 7 9 10 11 12 13 14 15 16 17 18 18 18 18 20 22 23 24 25 26 26 28 29 31 33 34 35 35 36 37
25 23 20 16 14 13 12 11 10 9 9 9 9 9 10 10 11 12 13 14 15 15 16 16 16 16 17 17 17 18 18 19 20 23 26 28 31 33 35 36 36 35 35
23 20 17 15 13 12 12 11 11 11 11 11 11 11 12 12 12 12 12 12 12 13 13 14 14 13 13 12 12 14 16 19 22 25 28 30 32 34 35 35 36 35 35
22 19 17 15 14 12 12 12 12 12 11 10 9 9 10 10 10 10 10 10 10 10 11 11 10 9 10 11 13 16 19 22 25 28 29 31 33 34 34 33 32 32 32
24 21 18 16 14 13 13 12 12 10 9 8 7 6 6 6 6 7 7 8 9 9 9 9 8 9 11 13 15 18 21 24 27 29 31 33 34 33 32 30 29 28 28
27 24 21 19 16 14 13 11 11 10 8 7 6 4 4 4 4 5 6 8 9 9 9 9 10 12 14 15 17 20 23 26 28 31 33 33 33 31 30 28 27 26 25
31 28 25 22 19 16 14 12 11 10 8 7 6 6 5 5 6 6 7 8 8 9 9 10 12 13 14 15 18 20 23 26 28 30 32 31 30 28 27 26 25 25 25
33 32 29 25 22 19 16 15 13 12 10 9 8 7 7 7 8 9 9 10 10 10 11 12 12 13 13 15 17 19 22 24 27 28 29 28 27 25 24 23 23 23 24
34 35 32 28 25 22 19 16 15 14 12 11 10 9 9 10 10 10 11 12 12 12 13 13 13 13 14 15 16 18 20 23 25 27 26 25 24 24 22 21 21 21 22
33 37 36 32 28 26 23 19 17 16 15 14 13 12 12 12 12 13 13 14 14 14 14 15 15 14 14 15 16 17 20 22 24 25 25 24 23 22 21 21 20 21 22
32 35 38 36 31 29 26 24 21 20 19 18 17 16 15 15 15 16 16 16 16 16 16 16 15 15 15 15 15 16 19 21 23 24 24 24 23 22 22 21 21 21 22
33 33 38 38 34 31 29 27 25 23 22 21 20 19 18 18 18 18 18 18 18 18 18 17 16 15 15 14 14 15 18 21 23 24 24 24 24 24 24 23 23 23 23
34 32 36 39 38 35 32 29 26 24 23 21 20 20 20 20 19 19 19 19 19 19 19 18 17 16 15 15 14 15 16 19 22 24 25 26 27 26 26 26 25 25 25
33 30 30 35 39 39 36 33 29 27 24 22 20 21 21 20 20 20 20 20 20 20 19 19 18 17 16 15 14 14 16 19 21 24 26 28 29 29 29 28 28 28 27
33 30 27 30 34 37 37 36 33 30 27 24 22 21 22 21 20 20 21 20 20 20 19 19 19 18 17 16 15 15 16 18 20 23 26 28 30 31 31 31 31 31 29
32 29 25 25 28 31 34 35 33 31 28 26 23 21 21 21 20 20 21 21 20 19 18 18 19 18 17 16 15 16 17 18 19 22 26 29 31 33 34 34 34 33 31
31 28 23 22 23 25 27 30 29 28 27 24 22 20 20 20 19 19 19 19 19 18 18 18 19 18 17 17 16 16 18 19 20 22 26 29 33 35 36 37 36 35 33
32 28 23 21 21 22 25 27 26 25 24 22 19 18 18 18 17 17 17 16 16 16 16 17 18 19 19 18 17 18 19 20 22 23 25 28 32 35 37 38 38 36 33
32 28 23 22 22 24 25 25 24 23 21 18 16 15 15 15 15 15 14 13 13 13 14 15 16 18 18 17 17 18 19 20 22 25 27 29 32 34 37 38 39 37 35
Wind_Direction
286 288 290 291 291 291 291 292 290 286 279 272 265 255 247 243 241 240 239 239 240 241 242 246 251 256 259 261 261 262 263 263 265 266 268 269 271 273 275 278 281 284 287
287 290 292 292 293 294 295 295 291 284 275 264 253 243 236 237 237 236 238 238 241 246 250 258 265 271 272 269 267 265 265 266 268 270 272 274 276 277 279 280 282 284 286
289 292 295 297 299 300 301 300 291 280 270 256 247 238 232 233 234 236 241 244 247 252 257 262 266 270 271 270 269 268 270 272 273 274 276 278 280 280 282 283 284 285 286
290 294 298 302 304 305 306 305 297 283 268 254 244 236 230 231 233 236 241 245 250 254 258 262 265 267 269 270 272 274 276 277 277 278 280 281 282 284 284 285 285 286 286
289 293 299 304 305 304 306 309 306 293 269 247 241 235 229 229 229 231 238 244 248 254 259 262 265 268 271 274 276 278 280 280 280 282 283 285 285 285 286 286 286 287 286
287 292 299 303 302 300 301 309 313 310 281 248 233 228 230 232 233 237 245 249 251 253 257 262 266 270 274 277 279 281 282 283 284 286 286 287 287 287 287 286 286 286 286
284 289 295 299 299 297 296 301 305 306 300 283 257 245 247 248 246 247 249 251 253 255 258 261 266 270 272 275 277 279 282 285 287 289 290 291 291 289 288 287 286 285 284
282 287 291 293 292 291 290 293 294 293 288 283 275 261 253 248 244 246 248 250 253 256 258 260 262 265 269 274 280 284 287 291 294 296 296 296 295 294 293 290 288 287 284
279 282 285 285 286 287 283 283 284 283 283 281 276 269 263 259 256 253 253 255 256 257 257 260 264 270 277 282 287 292 296 300 303 304 303 302 299 297 295 293 291 289 287
275 275 276 278 279 280 279 276 279 281 283 282 280 274 268 265 264 260 258 257 255 256 259 263 269 276 283 290 296 303 306 308 309 308 306 303 301 299 296 294 291 289 286
267 265 267 272 276 278 277 274 274 276 280 276 272 272 269 266 263 260 255 256 258 259 264 269 275 281 288 295 301 306 308 309 310 309 308 306 303 301 298 295 292 290 287
258 258 261 266 271 274 271 266 263 264 266 262 259 268 264 256 252 250 251 257 262 266 268 270 276 284 291 297 302 306 308 311 313 312 311 309 307 304 302 299 296 293 291
251 253 256 260 264 265 262 254 248 248 245 241 240 247 258 258 245 242 252 264 267 267 266 271 282 289 294 301 306 310 312 315 316 316 315 313 311 307 304 302 300 298 296
246 247 250 254 257 259 254 245 238 235 232 230 236 247 256 254 250 252 260 266 268 270 272 279 288 293 298 304 310 313 315 318 320 320 320 317 314 310 306 302 301 300 299
243 242 245 249 252 252 248 240 234 231 230 236 244 255 265 266 262 260 263 266 269 271 276 283 288 293 301 306 308 312 317 322 325 326 326 323 319 316 312 307 304 302 302
242 238 239 243 246 246 244 239 234 230 231 238 248 258 266 272 274 274 271 270 270 272 277 282 286 289 294 301 308 317 324 329 331 333 332 329 326 323 319 315 312 308 307
244 236 235 238 241 242 241 240 238 235 235 239 248 257 264 271 278 280 279 277 276 277 279 281 282 285 294 304 314 323 331 334 336 336 335 334 331 329 325 321 316 312 311
244 236 231 232 236 238 238 239 240 241 242 244 249 256 263 268 273 277 279 279 280 281 281 281 281 284 292 302 313 325 333 338 340 341 340 338 336 333 330 326 321 316 312
239 237 230 228 231 233 235 236 239 243 246 249 254 259 263 267 271 273 275 276 279 280 279 277 275 278 287 297 311 326 336 341 343 344 344 343 341 339 336 331 325 320 316
232 236 231 227 226 229 232 235 238 242 246 249 253 258 261 264 267 270 272 274 277 278 276 271 268 272 281 291 304 321 333 340 342 345 347 347 347 345 342 338 333 328 322
226 235 235 231 229 228 231 234 237 240 245 248 251 256 259 261 264 268 271 273 274 274 271 265 263 267 275 284 298 314 326 335 341 345 349 351 351 349 346 342 338 333 328
221 231 235 234 233 231 232 231 233 236 241 246 250 254 258 260 263 266 269 271 273 271 265 260 258 263 271 280 293 306 317 328 337 344 349 351 352 351 349 345 341 337 331
214 221 228 235 237 233 229 228 229 231 237 243 246 247 253 258 261 264 267 270 273 271 263 257 257 260 265 273 286 299 309 319 331 339 344 347 349 349 348 346 343 340 335
211 215 225 234 233 227 222 219 220 225 232 236 237 240 249 256 259 262 264 267 270 268 262 259 259 261 264 268 277 290 301 310 320 330 337 341 344 346 347 346 344 342 338
209 212 222 227 225 218 209 207 213 221 225 228 228 233 243 253 257 260 264 267 268 264 263 263 264 265 267 267 272 283 295 305 314 322 328 333 338 341 343 344 343 341 339
205 209 216 218 216 207 203 206 210 213 215 216 220 226 235 245 254 258 262 265 267 267 267 267 268 270 270 267 270 280 291 302 311 317 322 327 331 335 338 340 340 339 338
Height
5761 5757 5754 5750 5746 5742 5737 5732 5727 5724 5722 5721 5722 5724 5727 5730 5733 5735 5736 5737 5739 5740 5741 5742 5742 5744 5747 5749 5752 5755 5757 5759 5760 5761 5762 5763 5764 5764 5765 5765 5765 5765 5764
5750 5747 5743 5739 5735 5730 5726 5721 5716 5713 5712 5712 5714 5717 5720 5723 5726 5728 5730 5731 5732 5733 5735 5736 5738 5740 5742 5745 5748 5750 5752 5753 5754 5754 5754 5755 5755 5756 5756 5755 5755 5754 5753
5740 5737 5734 5730 5725 5721 5716 5711 5707 5705 5704 5705 5707 5710 5713 5716 5719 5721 5723 5725 5727 5728 5730 5732 5734 5736 5738 5741 5743 5744 5745 5746 5746 5747 5747 5747 5747 5747 5746 5745 5744 5744 5742
5732 5729 5726 5722 5718 5714 5709 5705 5700 5698 5697 5698 5700 5703 5706 5709 5713 5715 5718 5720 5722 5724 5726 5728 5730 5732 5734 5736 5737 5738 5739 5739 5739 5740 5740 5739 5738 5737 5737 5735 5734 5732 5731
5725 5722 5720 5716 5712 5709 5705 5701 5697 5694 5693 5694 5696 5698 5700 5704 5706 5709 5712 5715 5717 5719 5721 5723 5725 5727 5729 5730 5731 5731 5732 5732 5732 5732 5732 5731 5729 5728 5727 5725 5724 5722 5720
5718 5716 5714 5711 5708 5705 5702 5699 5696 5693 5692 5692 5693 5695 5697 5700 5702 5705 5708 5710 5713 5715 5717 5719 5720 5721 5723 5724 5724 5725 5725 5725 5725 5724 5723 5721 5720 5718 5716 5715 5713 5712 5710
5712 5711 5709 5707 5704 5702 5699 5697 5695 5693 5692 5691 5692 5694 5695 5697 5699 5702 5704 5706 5708 5710 5712 5714 5715 5716 5717 5717 5718 5718 5718 5717 5716 5715 5713 5712 5710 5708 5706 5704 5703 5701 5700
5706 5705 5704 5702 5700 5698 5696 5695 5693 5692 5691 5691 5691 5692 5694 5695 5697 5699 5701 5702 5704 5706 5707 5708 5709 5710 5711 5711 5711 5711 5711 5709 5708 5706 5705 5703 5701 5699 5696 5695 5693 5691 5689
5701 5699 5698 5697 5696 5694 5693 5692 5691 5690 5690 5690 5690 5691 5691 5693 5694 5695 5697 5699 5700 5702 5703 5704 5705 5705 5705 5705 5705 5705 5704 5703 5702 5700 5698 5696 5694 5691 5688 5686 5683 5682 5680
5695 5694 5693 5692 5691 5690 5689 5689 5688 5688 5687 5687 5687 5688 5688 5689 5691 5692 5693 5695 5696 5698 5699 5700 5700 5701 5701 5701 5701 5701 5700 5699 5697 5695 5693 5690 5686 5683 5680 5677 5674 5672 5670
5689 5688 5687 5687 5686 5686 5685 5685 5684 5684 5684 5684 5684 5684 5685 5686 5688 5689 5691 5692 5694 5695 5695 5696 5696 5697 5698 5698 5697 5696 5695 5694 5692 5689 5686 5682 5678 5674 5671 5667 5664 5662 5660
5682 5682 5682 5681 5681 5681 5680 5680 5680 5680 5681 5681 5681 5682 5683 5684 5686 5687 5688 5690 5691 5692 5692 5693 5693 5694 5695 5694 5693 5692 5691 5689 5686 5682 5678 5674 5669 5665 5661 5658 5655 5653 5651
5675 5675 5676 5676 5676 5676 5676 5676 5676 5677 5677 5678 5679 5680 5681 5682 5683 5684 5686 5687 5688 5689 5689 5690 5691 5691 5691 5690 5689 5688 5686 5683 5679 5675 5670 5665 5661 5656 5653 5650 5647 5645 5644
5666 5668 5669 5670 5670 5670 5671 5672 5673 5674 5674 5675 5676 5678 5679 5680 5681 5682 5683 5684 5685 5686 5686 5687 5687 5687 5686 5686 5685 5683 5681 5678 5673 5669 5663 5658 5654 5650 5647 5644 5641 5638 5636
5655 5659 5661 5663 5664 5665 5666 5667 5669 5670 5671 5672 5674 5675 5677 5678 5679 5679 5680 5681 5681 5682 5682 5683 5683 5683 5683 5682 5682 5680 5676 5673 5668 5663 5658 5653 5648 5644 5641 5638 5635 5633 5631
5644 5649 5652 5655 5657 5659 5661 5662 5664 5666 5667 5669 5670 5672 5673 5675 5675 5676 5677 5678 5678 5678 5679 5679 5679 5679 5680 5679 5677 5675 5672 5668 5664 5659 5653 5648 5644 5639 5636 5633 5631 5628 5625
5633 5638 5642 5646 5650 5652 5654 5657 5659 5661 5663 5665 5667 5668 5670 5671 5672 5673 5674 5674 5675 5675 5675 5675 5675 5676 5675 5674 5673 5671 5668 5664 5660 5655 5650 5645 5640 5636 5632 5629 5626 5623 5621
5621 5626 5632 5637 5641 5645 5648 5650 5653 5656 5658 5661 5663 5664 5666 5667 5669 5669 5670 5670 5671 5671 5671 5671 5671 5671 5671 5670 5669 5667 5664 5660 5656 5652 5647 5642 5637 5633 5628 5625 5621 5619 5616
5608 5614 5620 5627 5632 5637 5640 5644 5647 5650 5652 5655 5658 5659 5661 5662 5663 5664 5665 5665 5666 5666 5666 5667 5667 5667 5667 5667 5665 5663 5660 5657 5653 5649 5644 5639 5634 5629 5625 5620 5617 5613 5610
5596 5603 5608 5615 5622 5627 5632 5636 5640 5643 5646 5649 5652 5653 5655 5656 5658 5658 5659 5660 5661 5661 5661 5662 5662 5663 5663 5663 5662 5660 5657 5654 5650 5646 5641 5636 5631 5626 5621 5616 5612 5608 5604
5586 5592 5598 5604 5611 5617 5623 5628 5632 5636 5640 5643 5646 5647 5649 5651 5652 5653 5654 5654 5655 5655 5656 5656 5657 5658 5659 5658 5657 5656 5654 5651 5647 5643 5638 5633 5627 5622 5618 5613 5608 5604 5599
5576 5584 5590 5595 5600 5606 5613 5619 5624 5629 5633 5636 5639 5641 5642 5644 5646 5647 5648 5648 5649 5649 5650 5651 5652 5653 5654 5653 5653 5651 5650 5647 5644 5640 5635 5630 5625 5620 5615 5610 5605 5599 5594
5567 5576 5582 5587 5591 5596 5602 5608 5615 5621 5625 5629 5632 5635 5636 5638 5639 5641 5641 5642 5642 5643 5644 5645 5646 5648 5648 5648 5648 5647 5645 5643 5640 5636 5631 5627 5622 5617 5612 5606 5601 5595 5590
5561 5569 5575 5580 5584 5589 5594 5601 5607 5613 5618 5622 5626 5628 5630 5631 5633 5635 5636 5636 5637 5637 5638 5639 5640 5641 5642 5643 5642 5642 5640 5638 5635 5632 5628 5623 5618 5613 5608 5602 5596 5591 5585
5555 5563 5569 5574 5579 5584 5590 5596 5602 5607 5612 5616 5619 5622 5624 5625 5626 5628 5630 5631 5631 5632 5633 5634 5635 5636 5636 5637 5637 5636 5635 5633 5630 5627 5624 5620 5615 5610 5604 5598 5592 5586 5581
5550 5558 5564 5570 5575 5581 5586 5592 5598 5602 5607 5610 5614 5617 5619 5620 5621 5623 5624 5625 5626 5627 5628 5629 5629 5630 5630 5631 5631 5630 5629 5627 5625 5622 5618 5615 5611 5606 5600 5594 5588 5582 5576